| time (UTC) | temp F | wind direction | speed MPH | gust MPH | rain 1hr in | rain 24hr in | rain mn in | humidity % | barometer mb |
| 20260505030332 | 62 | 161 | 4.0 | 7.0 | 0.00 | 0.00 | 0.00 | 61 | 1010.0 |
| 20260505025823 | 62 | 168 | 4.0 | 7.0 | 0.00 | 0.00 | 0.00 | 62 | 1010.1 |
| 20260505025316 | 62 | 179 | 2.0 | 5.0 | 0.00 | 0.00 | 0.00 | 61 | 1010.1 |
| 20260505024828 | 62 | 169 | 4.0 | 6.0 | 0.00 | 0.00 | 0.00 | 61 | 1010.1 |
| 20260505024320 | 63 | 162 | 4.0 | 7.0 | 0.00 | 0.00 | 0.00 | 60 | 1010.2 |
| 20260505023816 | 63 | 171 | 4.0 | 7.0 | 0.00 | 0.00 | 0.00 | 59 | 1010.2 |
| 20260505023328 | 63 | 182 | 5.0 | 7.0 | 0.00 | 0.00 | 0.00 | 59 | 1010.2 |
| 20260505022819 | 64 | 173 | 4.0 | 7.0 | 0.00 | 0.00 | 0.00 | 58 | 1010.3 |
| 20260505022352 | 64 | 179 | 4.0 | 7.0 | 0.00 | 0.00 | 0.00 | 57 | 1010.3 |
| 20260505021823 | 64 | 180 | 4.0 | 7.0 | 0.00 | 0.00 | 0.00 | 57 | 1010.2 |
| 20260505021315 | 64 | 178 | 5.0 | 7.0 | 0.00 | 0.00 | 0.00 | 57 | 1010.1 |
| 20260505020827 | 64 | 166 | 3.0 | 7.0 | 0.00 | 0.00 | 0.00 | 57 | 1010.1 |
| 20260505020339 | 64 | 169 | 4.0 | 7.0 | 0.00 | 0.00 | 0.00 | 57 | 1010.2 |
| 20260505015829 | 64 | 176 | 2.0 | 7.0 | 0.00 | 0.00 | 0.00 | 56 | 1010.1 |
| 20260505015326 | 64 | 163 | 3.0 | 7.0 | 0.00 | 0.00 | 0.00 | 56 | 1010.1 |
| 20260505014818 | 65 | 186 | 4.0 | 6.0 | 0.00 | 0.00 | 0.00 | 55 | 1010.1 |
| 20260505014330 | 65 | 173 | 3.0 | 8.0 | 0.00 | 0.00 | 0.00 | 55 | 1010.1 |
| 20260505013821 | 65 | 160 | 4.0 | 8.0 | 0.00 | 0.00 | 0.00 | 55 | 1009.9 |
| 20260505013314 | 65 | 188 | 3.0 | 6.0 | 0.00 | 0.00 | 0.00 | 54 | 1009.9 |
| 20260505012826 | 65 | 177 | 3.0 | 6.0 | 0.00 | 0.00 | 0.00 | 54 | 1009.9 |
| 20260505012317 | 65 | 176 | 3.0 | 7.0 | 0.00 | 0.00 | 0.00 | 53 | 1009.8 |
| 20260505011829 | 65 | 175 | 3.0 | 7.0 | 0.00 | 0.00 | 0.00 | 53 | 1009.9 |
| 20260505011341 | 65 | 171 | 2.0 | 5.0 | 0.00 | 0.00 | 0.00 | 54 | 1009.7 |
| 20260505010815 | 65 | 173 | 3.0 | 7.0 | 0.00 | 0.00 | 0.00 | 54 | 1009.7 |
| 20260505010327 | 65 | 181 | 3.0 | 8.0 | 0.00 | 0.00 | 0.00 | 53 | 1009.5 |
| 20260505005817 | 66 | 174 | 3.0 | 5.0 | 0.00 | 0.00 | 0.00 | 53 | 1009.4 |
| 20260505005330 | 66 | 177 | 3.0 | 4.0 | 0.00 | 0.00 | 0.00 | 52 | 1009.4 |
| 20260505004822 | 67 | 173 | 2.0 | 5.0 | 0.00 | 0.00 | 0.00 | 51 | 1009.3 |
| 20260505004313 | 67 | 168 | 3.0 | 6.0 | 0.00 | 0.00 | 0.00 | 50 | 1009.2 |
| 20260505003826 | 68 | 174 | 3.0 | 6.0 | 0.00 | 0.00 | 0.00 | 49 | 1009.1 |
| 20260505003318 | 68 | 180 | 5.0 | 7.0 | 0.00 | 0.00 | 0.00 | 47 | 1009.1 |
| 20260505002834 | 68 | 180 | 4.0 | 7.0 | 0.00 | 0.00 | 0.00 | 48 | 1009.1 |
| 20260505002325 | 68 | 182 | 4.0 | 7.0 | 0.00 | 0.00 | 0.00 | 48 | 1009.1 |
| 20260505001837 | 68 | 169 | 4.0 | 7.0 | 0.00 | 0.00 | 0.00 | 48 | 1009.0 |
| 20260505001328 | 68 | 186 | 4.0 | 8.0 | 0.00 | 0.00 | 0.00 | 48 | 1008.9 |
| 20260505000819 | 68 | 162 | 5.0 | 9.0 | 0.00 | 0.00 | 0.00 | 47 | 1008.9 |
| 20260505000330 | 68 | 169 | 2.0 | 13.0 | 0.00 | 0.00 | 0.00 | 49 | 1008.9 |
| 20260504235820 | 68 | 138 | 5.0 | 13.0 | 0.00 | 0.00 | 0.00 | 49 | 1008.7 |
| 20260504235332 | 68 | 152 | 2.0 | 6.0 | 0.00 | 0.00 | 0.00 | 51 | 1008.6 |
| 20260504234824 | 67 | 175 | 4.0 | 7.0 | 0.00 | 0.00 | 0.00 | 51 | 1008.8 |
| 20260504234320 | 68 | 221 | 3.0 | 7.0 | 0.00 | 0.00 | 0.00 | 52 | 1008.7 |
| 20260504233832 | 68 | 179 | 2.0 | 7.0 | 0.00 | 0.00 | 0.00 | 52 | 1008.6 |
| 20260504233345 | 68 | 166 | 3.0 | 8.0 | 0.00 | 0.00 | 0.00 | 51 | 1008.7 |
| 20260504232815 | 68 | 192 | 5.0 | 8.0 | 0.00 | 0.00 | 0.00 | 51 | 1008.6 |
| 20260504232327 | 68 | 173 | 4.0 | 8.0 | 0.00 | 0.00 | 0.00 | 51 | 1008.6 |
| 20260504231819 | 69 | 155 | 5.0 | 10.0 | 0.00 | 0.00 | 0.00 | 50 | 1008.8 |
| 20260504231332 | 70 | 173 | 6.0 | 10.0 | 0.00 | 0.00 | 0.00 | 49 | 1008.8 |
| 20260504230824 | 71 | 165 | 5.0 | 10.0 | 0.00 | 0.00 | 0.00 | 47 | 1008.8 |
| 20260504230316 | 71 | 151 | 2.0 | 15.0 | 0.00 | 0.00 | 0.00 | 43 | 1008.5 |
| 20260504225830 | 72 | 201 | 2.0 | 9.0 | 0.00 | 0.00 | 0.00 | 43 | 1008.5 |
| 20260504225321 | 72 | 182 | 4.0 | 9.0 | 0.00 | 0.00 | 0.00 | 42 | 1008.5 |
| 20260504224813 | 72 | 180 | 3.0 | 9.0 | 0.00 | 0.00 | 0.00 | 45 | 1008.6 |
| 20260504224324 | 72 | 213 | 3.0 | 7.0 | 0.00 | 0.00 | 0.00 | 42 | 1008.6 |
| 20260504223816 | 72 | 176 | 2.0 | 7.0 | 0.00 | 0.00 | 0.00 | 43 | 1008.6 |
| 20260504223328 | 72 | 170 | 3.0 | 10.0 | 0.00 | 0.00 | 0.00 | 42 | 1008.6 |
| 20260504222819 | 72 | 148 | 4.0 | 10.0 | 0.00 | 0.00 | 0.00 | 42 | 1008.5 |
| 20260504222352 | 72 | 157 | 3.0 | 9.0 | 0.00 | 0.00 | 0.00 | 41 | 1008.5 |
| 20260504221822 | 73 | 159 | 3.0 | 11.0 | 0.00 | 0.00 | 0.00 | 42 | 1008.6 |
| 20260504221317 | 73 | 160 | 4.0 | 14.0 | 0.00 | 0.00 | 0.00 | 41 | 1008.6 |
| 20260504220830 | 73 | 157 | 6.0 | 16.0 | 0.00 | 0.00 | 0.00 | 41 | 1008.5 |
| 20260504220322 | 73 | 123 | 2.0 | 9.0 | 0.00 | 0.00 | 0.00 | 41 | 1008.5 |
| 20260504215832 | 73 | 145 | 3.0 | 12.0 | 0.00 | 0.00 | 0.00 | 40 | 1008.4 |
| 20260504215344 | 74 | 134 | 4.0 | 12.0 | 0.00 | 0.00 | 0.00 | 40 | 1008.4 |
| 20260504214814 | 74 | 152 | 6.0 | 10.0 | 0.00 | 0.00 | 0.00 | 39 | 1008.4 |
| 20260504214326 | 74 | 13 | 4.0 | 15.0 | 0.00 | 0.00 | 0.00 | 40 | 1008.4 |
| 20260504213838 | 74 | 209 | 5.0 | 15.0 | 0.00 | 0.00 | 0.00 | 40 | 1008.4 |
| 20260504213349 | 74 | 166 | 6.0 | 13.0 | 0.00 | 0.00 | 0.00 | 41 | 1008.4 |
| 20260504212819 | 74 | 176 | 6.0 | 12.0 | 0.00 | 0.00 | 0.00 | 40 | 1008.3 |
| 20260504212316 | 74 | 133 | 4.0 | 12.0 | 0.00 | 0.00 | 0.00 | 39 | 1008.3 |
| 20260504211828 | 74 | 145 | 4.0 | 11.0 | 0.00 | 0.00 | 0.00 | 41 | 1008.3 |
| 20260504211320 | 74 | 138 | 6.0 | 11.0 | 0.00 | 0.00 | 0.00 | 40 | 1008.3 |
| 20260504210832 | 74 | 279 | 3.0 | 12.0 | 0.00 | 0.00 | 0.00 | 39 | 1008.2 |
| 20260504210323 | 74 | 132 | 7.0 | 11.0 | 0.00 | 0.00 | 0.00 | 39 | 1008.3 |
| 20260504205813 | 74 | 173 | 7.0 | 10.0 | 0.00 | 0.00 | 0.00 | 38 | 1008.2 |
| 20260504205346 | 74 | 117 | 4.0 | 8.0 | 0.00 | 0.00 | 0.00 | 42 | 1008.1 |
| 20260504204838 | 74 | 137 | 3.0 | 14.0 | 0.00 | 0.00 | 0.00 | 41 | 1008.2 |
| 20260504204329 | 73 | 173 | 5.0 | 10.0 | 0.00 | 0.00 | 0.00 | 42 | 1008.2 |
| 20260504203825 | 73 | 170 | 4.0 | 6.0 | 0.00 | 0.00 | 0.00 | 43 | 1008.3 |
| 20260504203317 | 73 | 175 | 4.0 | 12.0 | 0.00 | 0.00 | 0.00 | 43 | 1008.3 |
| 20260504202829 | 72 | 184 | 4.0 | 12.0 | 0.00 | 0.00 | 0.00 | 42 | 1008.4 |
| 20260504202340 | 73 | 177 | 2.0 | 11.0 | 0.00 | 0.00 | 0.00 | 39 | 1008.4 |
| 20260504201831 | 73 | 175 | 2.0 | 14.0 | 0.00 | 0.00 | 0.00 | 38 | 1008.5 |
| 20260504201323 | 73 | 175 | 6.0 | 14.0 | 0.00 | 0.00 | 0.00 | 42 | 1008.5 |
| 20260504200815 | 72 | 177 | 4.0 | 9.0 | 0.00 | 0.00 | 0.00 | 40 | 1008.6 |
| 20260504200327 | 73 | 182 | 4.0 | 9.0 | 0.00 | 0.00 | 0.00 | 40 | 1008.6 |
| 20260504195816 | 73 | 205 | 5.0 | 10.0 | 0.00 | 0.00 | 0.00 | 38 | 1008.8 |
| 20260504195332 | 73 | 159 | 6.0 | 10.0 | 0.00 | 0.00 | 0.00 | 40 | 1008.9 |
| 20260504194824 | 73 | 179 | 5.0 | 7.0 | 0.00 | 0.00 | 0.00 | 43 | 1008.9 |
| 20260504194317 | 73 | 177 | 3.0 | 8.0 | 0.00 | 0.00 | 0.00 | 44 | 1009.0 |
| 20260504193850 | 72 | 167 | 4.0 | 8.0 | 0.00 | 0.00 | 0.00 | 43 | 1009.1 |
| 20260504193341 | 71 | 162 | 3.0 | 7.0 | 0.00 | 0.00 | 0.00 | 39 | 1009.2 |
| 20260504192831 | 71 | 161 | 2.0 | 6.0 | 0.00 | 0.00 | 0.00 | 43 | 1009.2 |
| 20260504192323 | 71 | 161 | 3.0 | 8.0 | 0.00 | 0.00 | 0.00 | 43 | 1009.3 |
| 20260504191815 | 71 | 169 | 5.0 | 12.0 | 0.00 | 0.00 | 0.00 | 39 | 1009.4 |
| 20260504191326 | 72 | 157 | 4.0 | 12.0 | 0.00 | 0.00 | 0.00 | 39 | 1009.6 |
| 20260504190822 | 72 | 161 | 5.0 | 10.0 | 0.00 | 0.00 | 0.00 | 40 | 1009.6 |
| 20260504190334 | 72 | 178 | 5.0 | 10.0 | 0.00 | 0.00 | 0.00 | 44 | 1009.6 |
| 20260504185824 | 72 | 184 | 6.0 | 10.0 | 0.00 | 0.00 | 0.00 | 41 | 1009.7 |
| 20260504185316 | 72 | 188 | 6.0 | 11.0 | 0.00 | 0.00 | 0.00 | 39 | 1009.7 |
| 20260504184828 | 71 | 151 | 4.0 | 9.0 | 0.00 | 0.00 | 0.00 | 40 | 1009.8 |
| 20260504184320 | 71 | 186 | 6.0 | 12.0 | 0.00 | 0.00 | 0.00 | 39 | 1009.8 |
| 20260504183831 | 72 | 165 | 6.0 | 12.0 | 0.00 | 0.00 | 0.00 | 38 | 1009.8 |
| 20260504183323 | 73 | 186 | 6.0 | 10.0 | 0.00 | 0.00 | 0.00 | 39 | 1009.8 |
| 20260504182816 | 73 | 142 | 4.0 | 13.0 | 0.00 | 0.00 | 0.00 | 42 | 1009.8 |
| 20260504182332 | 73 | 192 | 8.0 | 13.0 | 0.00 | 0.00 | 0.00 | 39 | 1009.8 |
| 20260504181844 | 73 | 155 | 7.0 | 13.0 | 0.00 | 0.00 | 0.00 | 43 | 1009.9 |
| 20260504181315 | 73 | 190 | 7.0 | 13.0 | 0.00 | 0.00 | 0.00 | 38 | 1010.0 |
| 20260504180827 | 74 | 178 | 6.0 | 12.0 | 0.00 | 0.00 | 0.00 | 38 | 1010.1 |
| 20260504180319 | 73 | 155 | 6.0 | 11.0 | 0.00 | 0.00 | 0.00 | 42 | 1010.2 |
| 20260504175829 | 73 | 177 | 3.0 | 7.0 | 0.00 | 0.00 | 0.00 | 38 | 1010.2 |
| 20260504175342 | 72 | 161 | 3.0 | 10.0 | 0.00 | 0.00 | 0.00 | 37 | 1010.4 |
| 20260504174834 | 71 | 17 | 2.0 | 10.0 | 0.00 | 0.00 | 0.00 | 38 | 1010.4 |
| 20260504174325 | 71 | 175 | 7.0 | 12.0 | 0.00 | 0.00 | 0.00 | 38 | 1010.5 |
| 20260504173817 | 71 | 175 | 8.0 | 12.0 | 0.00 | 0.00 | 0.00 | 43 | 1010.5 |
| 20260504173332 | 72 | 175 | 6.0 | 11.0 | 0.00 | 0.00 | 0.00 | 41 | 1010.5 |
| 20260504172824 | 71 | 155 | 4.0 | 15.0 | 0.00 | 0.00 | 0.00 | 41 | 1010.6 |
| 20260504172316 | 71 | 158 | 5.0 | 15.0 | 0.00 | 0.00 | 0.00 | 44 | 1010.7 |
| 20260504171848 | 71 | 103 | 3.0 | 9.0 | 0.00 | 0.00 | 0.00 | 41 | 1010.7 |
| 20260504171320 | 71 | 163 | 6.0 | 12.0 | 0.00 | 0.00 | 0.00 | 44 | 1010.9 |
| 20260504170852 | 71 | 182 | 8.0 | 12.0 | 0.00 | 0.00 | 0.00 | 41 | 1010.9 |
| 20260504170323 | 70 | 142 | 4.0 | 10.0 | 0.00 | 0.00 | 0.00 | 44 | 1010.9 |
| 20260504160348 | 68 | 284 | 3.0 | 8.0 | 0.00 | 0.00 | 0.00 | 39 | 1011.8 |
| 20260504150845 | 67 | 11 | 3.0 | 5.0 | 0.00 | 0.00 | 0.00 | 46 | 1012.2 |
| 20260504150316 | 67 | 168 | 2.0 | 6.0 | 0.00 | 0.00 | 0.00 | 44 | 1012.2 |
| 20260504141316 | 64 | 161 | 3.0 | 10.0 | 0.00 | 0.00 | 0.00 | 51 | 1012.3 |
| 20260504140829 | 63 | 188 | 4.0 | 9.0 | 0.00 | 0.00 | 0.00 | 47 | 1012.4 |
| 20260504140341 | 63 | 133 | 4.0 | 9.0 | 0.00 | 0.00 | 0.00 | 48 | 1012.4 |
| 20260504130325 | 59 | 179 | 4.0 | 11.0 | 0.00 | 0.00 | 0.00 | 54 | 1012.8 |
| 20260504110316 | 53 | 174 | 3.0 | 7.0 | 0.00 | 0.00 | 0.00 | 47 | 1013.1 |
| 20260504100326 | 52 | 175 | 3.0 | 7.0 | 0.00 | 0.00 | 0.00 | 47 | 1013.3 |
| 20260504081814 | 51 | 171 | 2.0 | 6.0 | 0.00 | 0.00 | 0.00 | 46 | 1013.6 |
| 20260504081330 | 51 | 167 | 1.0 | 3.0 | 0.00 | 0.00 | 0.00 | 45 | 1013.6 |
| 20260504080821 | 52 | 177 | 2.0 | 4.0 | 0.00 | 0.00 | 0.00 | 45 | 1013.6 |
| 20260504080314 | 52 | 172 | 1.0 | 4.0 | 0.00 | 0.00 | 0.00 | 45 | 1013.5 |
| 20260504070316 | 51 | 169 | 2.0 | 6.0 | 0.00 | 0.00 | 0.00 | 48 | 1013.8 |
| 20260504050326 | 50 | 176 | 1.0 | 4.0 | 0.00 | 0.00 | 0.00 | 46 | 1014.4 |
| 20260504045815 | 50 | 180 | 2.0 | 5.0 | 0.00 | 0.00 | 0.00 | 46 | 1014.4 |
| 20260504045328 | 50 | 169 | 2.0 | 5.0 | 0.00 | 0.00 | 0.00 | 46 | 1014.4 |
| 20260504044819 | 50 | 171 | 2.0 | 5.0 | 0.00 | 0.00 | 0.00 | 46 | 1014.4 |
| 20260504044331 | 50 | 165 | 3.0 | 5.0 | 0.00 | 0.00 | 0.00 | 44 | 1014.4 |
| 20260504043824 | 50 | 170 | 2.0 | 5.0 | 0.00 | 0.00 | 0.00 | 44 | 1014.4 |
| 20260504043316 | 50 | 173 | 2.0 | 5.0 | 0.00 | 0.00 | 0.00 | 44 | 1014.4 |
| 20260504042828 | 50 | 173 | 3.0 | 5.0 | 0.00 | 0.00 | 0.00 | 44 | 1014.4 |
| 20260504042324 | 51 | 170 | 3.0 | 5.0 | 0.00 | 0.00 | 0.00 | 43 | 1014.4 |
| 20260504041816 | 51 | 159 | 3.0 | 5.0 | 0.00 | 0.00 | 0.00 | 43 | 1014.4 |
| 20260504041329 | 51 | 169 | 3.0 | 6.0 | 0.00 | 0.00 | 0.00 | 43 | 1014.5 |
| 20260504040841 | 51 | 171 | 4.0 | 5.0 | 0.00 | 0.00 | 0.00 | 43 | 1014.5 |
| 20260504040333 | 51 | 175 | 3.0 | 6.0 | 0.00 | 0.00 | 0.00 | 43 | 1014.5 |
| 20260504035843 | 51 | 173 | 3.0 | 6.0 | 0.00 | 0.00 | 0.00 | 43 | 1014.5 |
| 20260504035314 | 51 | 175 | 1.0 | 5.0 | 0.00 | 0.00 | 0.00 | 43 | 1014.5 |
| 20260504034826 | 51 | 170 | 4.0 | 5.0 | 0.00 | 0.00 | 0.00 | 42 | 1014.5 |
| 20260504034338 | 51 | 167 | 2.0 | 4.0 | 0.00 | 0.00 | 0.00 | 42 | 1014.5 |
| 20260504033813 | 51 | 173 | 1.0 | 4.0 | 0.00 | 0.00 | 0.00 | 43 | 1014.5 |
| 20260504033346 | 51 | 170 | 2.0 | 4.0 | 0.00 | 0.00 | 0.00 | 43 | 1014.3 |
| 20260504032817 | 51 | 168 | 0.0 | 2.0 | 0.00 | 0.00 | 0.00 | 43 | 1014.3 |
| 20260504032329 | 51 | 168 | 0.0 | 2.0 | 0.00 | 0.00 | 0.00 | 43 | 1014.3 |
| 20260504031821 | 50 | 167 | 0.0 | 2.0 | 0.00 | 0.00 | 0.00 | 43 | 1014.3 |
| 20260504031332 | 50 | 167 | 1.0 | 3.0 | 0.00 | 0.00 | 0.00 | 44 | 1014.4 |
| 20260504030824 | 50 | 165 | 1.0 | 4.0 | 0.00 | 0.00 | 0.00 | 44 | 1014.3 |